Weather History for Ashtabula, OH

Change the Weather History Date:

Saturday, December 1, 2012

  Actual Average (KYNG) Record (KYNG)
Temperature  
Mean Temperature 41 °F 35 °F  
Max Temperature 54 °F 42 °F 71 °F (1934)
Min Temperature 28 °F 29 °F 9 °F (1964)
Degree Days  
Heating Degree Days 24 30  
Month to date heating degree days 30  
Since 1 July heating degree days 1359  
Cooling Degree Days 0 0  
Month to date cooling degree days 0  
Year to date cooling degree days 544  
Moisture  
Dew Point 34 °F    
Average Humidity 70    
Maximum Humidity 89    
Minimum Humidity 55    
Precipitation  
Precipitation 0.00 in 0.10 in 0.87 in (1974)
Month to date precipitation 0.10  
Year to date precipitation 36.02  
Snow  
Snow 0.00 in 0.40 in - ()
Month to date snowfall 0.4  
Since 1 July snowfall 4.8  
Snow Depth -    
Sea Level Pressure  
Sea Level Pressure 30.24 in    
Wind  
Wind Speed 5 mph (South)    
Max Wind Speed 16 mph    
Max Gust Speed -    
Visibility 8 miles    
Events      
T = Trace of Precipitation, MM = Missing Value Source: NWS Daily Summary

Daily Weather History Graph

Daily Weather History Graph

Search for Another Location

Airport:

Trip Planner

Search our weather history database for the weather conditions in past years. The results will help you decide how hot, cold, wet, or windy it might be!

Date:

Astronomy

Dec. 01, 2012 Rise Set
Actual Time 7:31 AM EST 4:52 PM EST
Civil Twilight 7:00 AM EST 5:23 PM EST
Nautical Twilight 6:25 AM EST 5:58 PM EST
Astronomical Twilight 5:51 AM EST 6:31 PM EST
Moon 7:42 PM EST (12/1) 9:42 AM EST (12/1)
Length of Visible Light 10h 23m
Length of Day
9h 21m
Waning Gibbous, 92% of the Moon is Illuminated
Dec 1
Waning Gibbous
Dec 6
Last Quarter
Dec 13
New
Dec 20
First Quarter
Dec 28
Full

Hourly Weather History & Observations

Time (EST) Temp. Windchill Dew Point Humidity Pressure Visibility Wind Dir Wind Speed Gust Speed Precip Events Conditions
12:53 AM 34.0 °F 31.0 °F 28.9 °F 82% 30.25 in 7.0 mi East 3.5 mph - N/A   Clear
1:53 AM 30.0 °F - 27.0 °F 88% 30.24 in 5.0 mi Calm Calm - N/A   Clear
2:53 AM 28.9 °F - 26.1 °F 89% 30.26 in 2.5 mi Calm Calm - N/A   Partly Cloudy
3:02 AM 30.2 °F - 26.6 °F 86% 30.24 in 4.0 mi Calm Calm - N/A   Partly Cloudy
3:53 AM 30.9 °F - 28.0 °F 89% 30.26 in 4.0 mi Calm Calm - N/A   Mostly Cloudy
4:53 AM 33.1 °F 30.0 °F 28.9 °F 85% 30.29 in 6.0 mi NE 3.5 mph - N/A   Overcast
5:53 AM 34.0 °F - 28.9 °F 82% 30.30 in 8.0 mi Calm Calm - N/A   Scattered Clouds
7:53 AM 33.1 °F 28.7 °F 28.0 °F 82% 30.30 in 8.0 mi SSE 4.6 mph - N/A   Scattered Clouds
9:53 AM 44.1 °F 39.5 °F 33.1 °F 65% 30.31 in 10.0 mi South 8.1 mph - N/A   Overcast
10:53 AM 48.9 °F - 36.0 °F 61% 30.29 in 10.0 mi South 9.2 mph - N/A   Overcast
11:53 AM 52.0 °F - 37.0 °F 57% 30.26 in 10.0 mi South 16.1 mph - N/A   Overcast
12:53 PM 52.0 °F - 37.0 °F 57% 30.25 in 10.0 mi South 10.4 mph - N/A   Overcast
2:53 PM 54.0 °F - 37.9 °F 55% 30.23 in 10.0 mi South 11.5 mph - N/A   Overcast
4:53 PM 53.1 °F - 37.9 °F 57% 30.21 in 10.0 mi South 8.1 mph - N/A   Mostly Cloudy
5:53 PM 51.1 °F - 37.9 °F 61% 30.22 in 10.0 mi South 5.8 mph - N/A   Clear
6:53 PM 50.0 °F - 37.9 °F 63% 30.21 in 10.0 mi South 8.1 mph - N/A   Clear
7:53 PM 51.1 °F - 37.9 °F 61% 30.21 in 10.0 mi South 11.5 mph - N/A   Partly Cloudy
8:53 PM 50.0 °F - 37.9 °F 63% 30.20 in 10.0 mi South 9.2 mph - N/A   Scattered Clouds
9:53 PM 50.0 °F - 37.9 °F 63% 30.18 in 10.0 mi South 9.2 mph - N/A   Scattered Clouds
10:53 PM 48.9 °F - 37.9 °F 66% 30.17 in 10.0 mi South 10.4 mph - N/A   Mostly Cloudy
11:53 PM 51.1 °F - 37.9 °F 61% 30.17 in 10.0 mi South 11.5 mph - N/A   Clear